Location: Newark
(45.2500°N, 7.7167°E)
Time: 11:08:37
(UTC+00:00)

ISS - Pass Details

Date: 27 October 2019
Orbit: 412 x 421 km, 51.6° (Epoch: 12 November)

Event Time Altitude Azimuth Distance (km) Brightness Sun altitude
Exits shadow 03:56:38 23° 159° (SSE) 941 -1.9 -22.4°
Maximum altitude 03:57:21 25° 138° (SE) 891 -1.8 -22.2°
Drops below altitude 10° 04:00:11 10° 81° (E) 1,506 0.2 -21.7°
Sets 04:02:30 0° 68° (ENE) 2,372 1.3 -21.3°
